Location: Newark
(44.6394°N, 22.2943°E)
Time: 22:01:31
(UTC+00:00)

ISS - Visible Passes

Search period start: 22 January 2022 00:00
Search period end: 01 February 2022 00:00
Orbit: 413 x 422 km, 51.6° (Epoch: 22 January)

Date Brightness Start Highest point End Pass type
(mag) Time Alt. Az. Time Alt. Az. Time Alt. Az.
22 Jan -2.7 17:16:39 10° W 17:19:46 36° NNW 17:19:58 35° N visible
23 Jan -3.1 16:28:26 10° W 16:31:40 48° NNW 16:33:58 17° NE visible
23 Jan -0.8 18:06:11 10° WNW 18:06:54 14° NW 18:06:54 14° NW visible
24 Jan -2.2 17:17:55 10° WNW 17:20:47 26° N 17:20:52 26° N visible
25 Jan -2.4 16:29:37 10° WNW 16:32:36 29° NNW 16:34:49 15° NE visible
25 Jan -0.7 18:07:13 10° NW 18:07:44 13° NW 18:07:44 13° NW visible
26 Jan -2.1 17:19:03 10° NW 17:21:40 23° N 17:21:40 23° N visible
27 Jan -2.2 16:30:48 10° WNW 16:33:35 24° N 16:35:35 15° NE visible
27 Jan -0.8 18:07:56 10° NW 18:08:31 14° NW 18:08:31 14° NW visible
28 Jan -2.3 17:19:52 10° NW 17:22:27 27° N 17:22:27 27° N visible
29 Jan -2.3 16:31:44 10° NW 16:34:33 24° N 16:36:25 16° NE visible
29 Jan -1.0 18:08:29 10° NW 18:09:21 17° NW 18:09:21 17° NW visible
30 Jan -3.0 17:20:26 10° NW 17:23:22 40° N 17:23:22 40° N visible
31 Jan -2.8 16:32:22 10° NW 16:35:25 32° NNE 16:37:27 17° ENE visible
31 Jan -1.3 18:09:03 10° WNW 18:10:23 22° WNW 18:10:23 22° WNW visible
